Location: ??????
(55.8274°N, 37.9338°E)
Time: 03:40:41
(UTC+00:00)

Cosmos 1943 Rocket - Visible Passes

Search period start: 25 July 2024 00:00
Search period end: 04 August 2024 00:00
Orbit: 812 x 843 km, 71.0° (Epoch: 24 July)

Date Brightness Start Highest point End Pass type
(mag) Time Alt. Az. Time Alt. Az. Time Alt. Az.
25 Jul 4.9 00:32:04 10° NNW 00:36:11 20° NNE 00:40:16 10° ENE visible
25 Jul 2.2 18:55:19 10° SSW 19:00:57 78° ESE 19:06:34 10° NE visible
25 Jul 4.0 20:40:11 10° W 20:45:14 33° NW 20:50:17 10° NNE visible
25 Jul 4.9 22:26:56 10° NW 22:30:43 18° N 22:34:28 10° NNE visible
26 Jul 4.9 00:12:34 10° NNW 00:16:36 20° NNE 00:20:36 10° ENE visible
26 Jul 2.2 18:35:55 10° SSW 18:41:31 71° ESE 18:47:07 10° NE visible
26 Jul 3.9 20:20:35 10° WSW 20:25:43 35° NW 20:30:51 10° NNE visible
26 Jul 5.0 22:07:17 10° NW 22:11:08 18° NNW 22:14:57 10° NNE visible
26 Jul 5.0 23:53:05 10° NNW 23:57:02 19° NNE 00:00:57 10° ENE visible
27 Jul 3.8 20:01:00 10° WSW 20:06:13 38° NW 20:11:25 10° NNE visible
27 Jul 5.0 21:47:38 10° WNW 21:51:32 19° NNW 21:55:26 10° NNE visible
27 Jul 5.0 23:33:36 10° NNW 23:37:27 19° NNE 23:41:18 10° ENE visible
28 Jul 3.7 19:41:24 10° WSW 19:46:42 40° NW 19:51:59 10° NNE visible
28 Jul 5.0 21:27:59 10° WNW 21:31:58 19° NNW 21:35:56 10° NNE visible
28 Jul 5.1 23:14:04 10° NNW 23:17:52 18° N 23:21:38 10° NE visible
29 Jul 3.5 19:21:51 10° WSW 19:27:12 43° NW 19:32:33 10° NNE visible
29 Jul 5.0 21:08:20 10° WNW 21:12:24 20° NNW 21:16:27 10° NNE visible
29 Jul 5.1 22:54:33 10° NNW 22:58:17 18° N 23:01:59 10° NE visible
30 Jul 4.3 00:38:47 10° NNW 00:43:47 32° NE 00:48:43 10° E visible
30 Jul 3.4 19:02:18 10° WSW 19:07:43 47° NW 19:13:06 10° NNE visible
30 Jul 4.9 20:48:40 10° WNW 20:52:49 21° NNW 20:56:58 10° NNE visible
30 Jul 5.2 22:35:01 10° NW 22:38:41 17° N 22:42:21 10° NE visible
31 Jul 4.4 00:19:21 10° NNW 00:24:15 30° NE 00:29:06 10° E visible
31 Jul 3.3 18:42:45 10° WSW 18:48:13 51° NW 18:53:40 10° NNE visible
31 Jul 4.9 20:29:00 10° WNW 20:33:15 21° NNW 20:37:29 10° NNE visible
31 Jul 5.2 22:15:28 10° NW 22:19:06 17° N 22:22:43 10° NE visible
31 Jul 4.5 23:59:55 10° NNW 00:04:43 29° NNE 00:09:28 10° E visible
01 Aug 3.1 18:23:14 10° SW 18:28:44 55° NW 18:34:14 10° NNE visible
01 Aug 4.9 20:09:21 10° WNW 20:13:41 22° NNW 20:18:01 10° NNE visible
01 Aug 5.3 21:55:54 10° NW 21:59:31 17° N 22:03:06 10° NE visible
01 Aug 4.6 23:40:28 10° NNW 23:45:10 27° NNE 23:49:50 10° E visible
02 Aug 4.8 19:49:42 10° WNW 19:54:08 23° NNW 19:58:33 10° NNE visible
02 Aug 5.3 21:36:20 10° NW 21:39:55 17° N 21:43:29 10° NE visible
02 Aug 4.6 23:21:01 10° NNW 23:25:38 26° NNE 23:30:12 10° E visible
03 Aug 4.7 19:30:03 10° W 19:34:34 24° NNW 19:39:05 10° NNE visible
03 Aug 5.2 21:16:45 10° NW 21:20:19 17° N 21:23:53 10° NE visible
03 Aug 4.7 23:01:34 10° NNW 23:06:04 24° NNE 23:10:33 10° E visible
